Lapse_Rate
7.3 7.2 7.2 7.1 7.2 7.2 7.7 8.4 8.4 9.2 9.0 8.6 8.5 8.4 8.1 8.3 8.0 8.1 8.1 8.1 8.4 8.8 8.6 8.4 8.4 8.4 8.4 8.3 8.1 8.0 7.9 7.7 7.5 7.3 7.3 7.1 7.0 7.0 7.0 6.8 6.7 6.5 6.6 6.6 6.5 6.2 6.2 6.2 6.2
7.3 7.2 7.3 7.1 7.1 7.4 7.9 8.9 8.8 8.6 8.4 8.5 8.5 8.6 8.2 8.0 8.1 7.7 8.0 8.2 8.3 8.8 8.6 8.3 8.4 8.4 8.3 8.4 8.2 8.0 7.8 7.7 7.6 7.4 7.2 7.2 7.3 7.3 7.1 7.0 6.8 6.8 6.7 6.8 6.7 6.6 6.5 6.3 6.3
7.3 7.3 7.7 7.2 7.4 7.9 8.1 8.9 8.6 8.3 8.3 8.3 8.3 8.0 8.2 8.3 8.3 7.9 8.3 9.0 8.5 8.5 8.6 8.5 8.4 8.4 8.3 8.2 8.2 8.0 7.7 7.7 7.5 7.4 7.3 7.2 7.2 7.1 7.1 7.0 6.9 6.8 6.9 6.9 6.7 6.6 6.6 6.4 6.4
7.2 7.2 7.3 7.2 7.8 8.3 7.8 8.9 9.1 9.0 8.9 8.6 7.9 7.6 7.5 7.6 8.0 8.6 8.3 8.7 8.6 8.8 8.9 8.7 8.3 8.2 8.1 8.0 8.0 7.9 7.6 7.5 7.5 7.5 7.5 7.3 7.2 7.2 7.2 7.1 7.0 7.0 6.9 6.9 6.8 6.8 6.7 6.7 6.6
7.0 7.4 7.1 7.4 7.7 8.5 8.5 9.4 9.3 9.1 8.9 8.3 7.7 7.6 7.8 7.6 8.0 7.9 8.4 8.8 8.8 8.9 8.9 8.7 8.3 7.9 7.8 7.8 7.8 7.6 7.5 7.5 7.5 7.5 7.6 7.6 7.4 7.3 7.3 7.2 7.2 7.1 6.9 6.9 6.9 6.7 6.7 6.8 6.8
7.3 6.9 7.1 7.4 8.2 8.5 9.0 9.2 9.1 8.9 8.7 8.5 7.9 7.9 7.5 6.9 8.3 8.4 8.7 8.7 8.6 8.8 8.9 8.6 8.1 7.8 7.8 7.6 7.6 7.5 7.5 7.5 7.4 7.4 7.5 7.5 7.4 7.2 7.3 7.3 7.2 7.2 7.0 7.0 7.0 7.0 7.0 6.9 6.8
7.4 6.7 7.3 7.2 7.5 8.1 9.2 9.5 9.0 8.7 8.2 8.2 8.2 7.8 7.5 5.5 7.1 8.0 8.6 8.7 8.7 8.9 8.4 8.0 7.7 7.7 7.5 7.6 7.5 7.3 7.3 7.3 7.3 7.3 7.4 7.3 7.2 7.3 7.4 7.4 7.3 7.2 7.3 7.2 7.1 7.2 7.2 7.1 7.1
6.9 6.7 7.0 7.3 7.4 8.5 9.2 9.3 8.9 8.7 8.4 8.1 8.3 8.3 7.0 7.4 7.7 7.5 8.3 8.7 8.7 8.3 8.1 7.8 7.7 7.7 7.5 7.3 7.2 7.2 7.2 7.3 7.3 7.3 7.3 7.2 7.2 7.2 7.3 7.5 7.3 7.2 7.2 7.3 7.2 7.3 7.2 7.1 7.1
6.5 6.3 6.7 7.6 8.3 8.9 9.0 9.0 8.7 8.4 8.5 8.3 8.2 8.3 8.4 8.5 8.0 7.7 8.0 8.6 8.5 8.0 7.9 7.8 7.8 7.6 7.4 7.2 7.0 6.9 7.0 7.1 7.1 7.1 7.0 7.0 7.1 7.2 7.2 7.2 7.3 7.3 7.2 7.3 7.3 7.3 7.3 7.3 7.2
6.4 6.4 7.0 8.3 7.9 8.3 9.0 8.9 8.2 7.5 8.5 8.2 7.9 8.2 8.7 8.5 8.2 8.1 7.8 8.2 8.2 8.0 7.9 7.9 7.6 7.4 7.4 7.1 6.9 7.0 6.9 6.9 6.9 7.0 7.0 7.1 7.0 7.2 7.2 7.2 7.1 7.3 7.4 7.4 7.4 7.5 7.4 7.3 7.3
6.7 6.6 7.3 8.2 7.6 8.0 8.5 8.3 8.2 7.6 7.9 8.3 8.2 8.3 8.1 7.9 7.6 7.7 7.6 8.2 8.1 7.8 7.8 7.6 7.6 7.6 7.4 7.2 6.9 6.8 6.9 6.9 7.0 7.0 7.0 7.1 7.1 7.1 7.2 7.1 7.1 7.2 7.4 7.5 7.4 7.4 7.4 7.4 7.3
6.9 6.9 7.3 7.8 7.8 7.1 7.5 7.2 7.3 7.8 7.8 8.2 8.5 8.0 7.6 7.6 7.5 7.7 8.0 8.0 7.7 7.3 7.3 7.5 7.5 7.3 7.1 7.1 7.1 7.1 6.9 6.9 6.9 7.0 7.1 7.0 7.1 7.4 7.1 7.0 7.0 7.1 7.1 7.3 7.4 7.3 7.3 7.3 7.2
7.2 7.3 7.5 7.9 8.0 7.7 7.3 7.3 7.3 7.5 7.9 8.1 8.2 7.8 7.4 7.3 7.5 7.4 7.2 7.0 7.0 7.2 7.2 7.2 7.2 7.2 7.0 7.1 7.1 7.0 7.1 7.1 7.0 7.1 7.0 6.9 6.9 7.1 7.2 7.0 7.0 7.1 7.1 7.0 7.1 7.2 7.2 7.2 7.0
7.2 7.3 7.5 7.5 7.3 7.5 7.1 7.1 7.5 7.4 7.7 7.8 8.4 8.1 7.7 7.4 7.5 7.4 7.3 7.1 6.9 6.9 7.0 7.1 7.0 7.1 7.0 7.0 7.0 7.1 7.1 7.0 6.9 6.9 6.9 6.7 6.5 6.6 6.8 6.9 6.8 6.9 7.0 7.0 6.9 7.0 7.0 7.0 7.0
7.1 7.2 7.6 7.6 7.5 7.4 7.7 7.3 7.0 7.4 7.5 7.6 8.3 8.0 7.9 7.9 7.7 7.6 7.1 7.3 7.0 7.0 7.0 6.9 6.9 6.9 7.0 6.8 6.8 6.9 6.9 7.0 7.0 7.0 7.0 6.9 6.8 6.7 6.6 6.6 6.5 6.5 6.7 7.1 7.4 7.4 7.1 7.1 7.0
6.8 6.9 7.1 7.9 7.5 7.4 7.3 6.8 7.2 7.4 7.6 7.5 7.6 8.1 7.9 7.7 7.6 7.6 7.6 7.3 7.1 6.9 6.7 6.7 7.0 7.3 7.1 6.8 6.5 6.5 6.6 6.6 6.7 6.8 6.7 6.7 6.7 6.8 6.8 6.8 6.7 6.2 6.0 6.3 6.9 7.1 6.9 6.6 6.6
7.2 6.8 6.9 7.3 7.8 7.5 7.5 7.0 7.6 7.8 7.5 7.5 7.4 7.7 7.6 7.5 7.5 7.4 7.6 7.6 7.1 6.8 6.8 6.9 7.0 7.2 7.3 7.0 6.9 6.9 6.8 6.7 6.6 6.7 6.8 6.7 6.7 6.6 6.8 6.8 6.8 6.6 6.4 6.2 6.3 6.7 6.9 6.7 6.5
7.8 7.2 7.1 7.5 8.3 7.9 7.7 7.5 7.7 8.0 7.8 8.0 7.4 7.6 7.3 7.3 7.1 7.2 7.4 7.4 7.4 7.0 6.6 6.7 6.9 7.0 7.2 7.0 7.0 7.0 7.1 7.2 7.0 7.0 6.9 6.9 6.7 6.7 6.7 6.7 6.7 6.8 6.7 6.6 6.6 6.5 6.7 6.8 6.7
8.1 7.7 7.6 7.9 8.0 8.1 8.6 8.3 7.8 8.2 7.8 7.7 7.6 7.4 7.0 6.8 7.1 7.5 7.6 7.4 7.4 7.3 6.9 6.7 6.8 6.8 6.9 7.0 7.0 6.9 7.0 7.1 7.2 7.2 7.1 6.9 6.8 6.7 6.6 6.7 6.5 6.5 6.6 6.7 6.5 6.5 6.8 6.9 6.8
7.4 7.3 7.5 8.2 8.5 8.1 8.1 8.5 8.3 8.1 8.0 7.9 8.1 7.7 6.8 6.5 6.7 7.2 7.9 7.5 7.4 7.3 7.2 7.0 6.9 6.9 7.1 7.2 7.3 7.2 7.1 7.1 7.0 7.0 7.1 7.0 6.9 6.8 6.7 6.7 6.7 6.5 6.6 6.4 6.3 6.3 6.5 6.7 6.9
6.9 7.0 7.3 7.8 8.4 8.4 8.2 8.0 7.9 7.6 8.6 8.3 7.6 7.7 7.5 7.2 6.9 7.3 7.6 7.6 7.5 7.3 7.2 7.2 7.2 7.1 7.3 7.2 7.4 7.5 7.4 7.3 7.2 7.1 7.0 6.9 6.7 6.5 6.4 6.4 6.5 6.3 6.0 6.2 6.0 6.0 5.7 5.7 6.3
6.7 7.3 7.5 7.9 8.3 7.9 8.3 7.1 8.0 8.1 7.7 8.4 8.3 8.1 7.5 6.8 6.5 6.7 7.7 7.9 7.6 7.5 7.4 7.4 7.3 7.2 7.2 7.2 7.3 7.3 7.2 7.0 6.9 6.7 6.6 6.4 6.2 6.2 6.2 6.2 6.3 6.4 6.4 6.4 6.5 6.5 6.4 6.1 5.6
7.0 7.5 8.1 8.3 8.2 8.1 7.7 7.8 7.3 7.7 7.9 7.7 8.4 8.9 8.2 7.6 7.1 6.8 7.4 7.8 7.5 7.2 7.3 7.3 6.9 6.8 7.0 7.0 7.0 7.0 6.9 6.7 6.6 6.5 6.5 6.5 6.5 6.5 6.5 6.3 6.3 6.4 6.5 6.5 6.4 6.4 6.5 6.5 6.5
7.6 8.4 8.3 8.7 8.4 7.1 7.2 7.7 6.4 7.0 7.6 7.8 8.1 8.4 8.1 7.6 7.7 7.5 7.5 7.4 7.6 7.2 6.9 6.9 6.7 6.5 6.5 6.5 6.6 6.5 6.5 6.4 6.1 5.9 5.7 5.7 5.9 6.0 6.1 6.2 6.3 6.2 6.2 6.3 6.4 6.4 6.3 6.4 6.7
7.9 8.3 7.5 6.7 6.4 4.8 6.7 7.1 6.2 6.8 7.4 8.0 8.3 8.5 8.4 8.0 7.9 7.9 7.8 7.8 7.8 7.4 7.0 6.8 6.4 6.2 6.0 5.9 5.9 5.9 6.0 6.0 6.0 6.1 6.1 6.1 6.0 5.9 5.8 5.9 6.1 6.2 6.3 6.3 6.2 6.1 6.2 6.2 6.2
7.6 8.0 6.8 5.7 5.4 6.1 6.7 6.4 6.5 7.1 7.2 7.7 8.2 8.1 8.4 8.2 8.0 8.1 8.4 8.2 8.0 7.5 6.9 6.7 6.4 6.4 6.3 6.2 6.1 5.9 5.8 5.9 6.0 6.0 6.0 5.9 5.9 6.0 6.0 6.0 6.0 6.1 6.0 6.0 5.8 5.8 5.8 5.8 5.6
7.1 7.4 8.0 7.6 7.4 6.3 6.6 6.5 6.5 6.8 7.1 7.6 7.8 7.5 7.5 7.9 8.1 8.4 8.3 7.8 7.6 7.4 6.7 6.2 6.0 6.1 6.1 6.1 6.0 6.1 6.0 5.9 5.8 5.7 5.7 5.8 6.0 6.0 5.9 6.0 5.8 5.4 5.3 5.5 5.7 5.8 5.9 6.2 6.5
6.7 7.5 8.0 7.7 5.7 5.8 5.3 5.7 5.8 6.8 7.0 7.7 8.1 8.1 7.7 7.8 7.9 7.8 7.7 7.4 7.0 7.0 6.9 6.2 5.9 5.9 5.9 5.8 5.8 5.8 5.8 5.8 5.9 6.0 6.1 6.1 5.9 5.9 5.6 5.5 5.7 5.7 5.7 5.8 5.8 5.7 5.9 5.9 5.9
6.7 7.2 7.8 7.5 6.1 4.8 5.1 5.1 6.0 6.8 7.2 7.1 7.9 8.1 7.9 7.7 7.6 7.6 7.3 6.9 6.6 6.7 6.6 6.2 6.0 6.0 5.8 5.7 5.7 5.8 5.8 6.0 6.2 6.0 5.9 5.7 5.4 5.5 5.5 5.6 5.6 5.6 5.6 5.5 5.4 5.5 5.7 5.8 5.7
7.0 6.8 7.1 6.2 5.1 5.1 5.7 5.0 6.2 6.3 6.9 6.7 6.9 7.7 7.9 7.9 7.7 7.3 6.8 6.5 6.6 6.5 5.9 6.1 6.3 6.1 5.9 5.8 5.8 5.8 5.9 6.0 5.6 5.8 5.6 5.5 5.6 5.2 5.1 5.2 5.2 5.2 4.9 4.8 4.8 4.8 4.8 5.0 5.2
Wind_Speed
2 8 1 3 3 2 6 8 6 2 4 4 6 10 13 3 5 4 6 16 17 17 18 19 21 17 17 20 21 19 20 21 20 19 17 17 18 18 18 17 16 13 13 11 11 9 9 9 8
4 5 0 3 2 2 7 11 4 5 4 8 7 7 9 4 7 2 7 14 16 15 17 17 21 19 17 18 20 19 19 20 20 19 18 17 17 17 17 16 15 12 10 9 10 9 8 7 6
4 4 1 4 3 8 4 5 5 5 9 4 3 13 4 1 4 3 11 19 16 12 17 18 20 19 18 19 20 20 19 19 20 19 18 17 16 16 17 16 14 13 10 8 7 8 8 6 5
2 4 4 0 11 15 7 6 5 6 7 7 7 9 5 9 8 5 13 19 15 13 18 21 22 21 19 18 19 20 19 19 20 20 19 17 16 15 15 15 14 13 11 9 7 6 5 3 3
1 2 2 4 10 16 4 6 5 5 2 2 7 7 14 7 15 5 11 16 15 12 17 19 20 19 18 19 20 20 21 20 19 19 19 18 17 16 14 14 12 11 9 10 7 5 3 3 3
3 2 3 6 13 11 4 7 6 3 1 3 13 16 10 21 9 7 13 11 13 14 15 18 18 18 19 20 21 21 22 20 19 19 18 18 16 15 14 12 11 10 10 8 7 5 2 2 3
6 1 7 10 16 19 6 8 6 5 3 4 7 8 6 15 13 3 11 14 13 12 11 13 15 17 19 19 20 20 21 21 20 19 18 17 15 14 13 12 11 9 11 9 7 4 2 2 1
4 3 9 9 11 16 4 3 6 7 3 4 4 7 7 23 21 4 8 13 13 10 10 9 12 13 13 15 21 22 22 21 20 19 18 16 15 14 13 11 10 11 11 8 7 6 4 3 3
3 1 7 16 7 11 3 5 3 4 4 5 5 8 15 26 8 5 6 10 11 10 10 8 8 12 14 13 14 17 18 18 17 17 17 15 13 13 12 11 11 13 11 8 7 6 5 5 6
4 4 10 16 13 16 6 4 3 3 0 3 4 6 16 16 8 11 10 10 10 12 11 10 9 8 12 12 12 11 11 12 12 13 14 14 14 15 14 14 16 16 13 10 9 8 7 7 9
8 10 11 17 12 9 8 7 2 3 2 5 9 14 13 9 12 15 15 16 14 15 11 12 11 10 8 7 12 11 12 11 11 13 14 13 11 14 13 12 13 15 16 12 11 9 10 10 10
8 12 11 16 10 7 8 7 7 4 7 9 4 18 17 17 15 15 15 16 16 18 16 16 15 12 9 10 9 11 9 11 10 14 18 13 7 7 9 10 12 11 11 10 12 11 12 13 12
9 11 12 13 10 6 8 6 6 8 8 10 4 6 11 11 12 12 14 17 17 17 16 17 16 14 10 10 7 9 7 11 14 15 18 16 8 5 9 8 9 9 11 10 8 9 9 9 9
6 10 10 8 8 5 6 7 3 10 9 9 5 7 9 10 9 5 6 9 19 17 16 16 16 15 12 9 10 9 11 13 13 14 16 18 13 7 5 4 6 8 12 13 12 9 6 5 7
10 9 10 13 5 6 7 9 11 10 10 13 12 7 6 4 6 9 5 9 15 19 17 18 16 15 14 9 7 6 10 15 9 13 17 18 16 11 8 4 4 8 11 16 11 9 7 4 4
9 8 6 9 7 10 5 15 14 12 14 15 11 7 5 7 10 9 7 6 8 9 17 13 14 15 12 9 6 4 5 2 5 9 13 16 15 14 7 4 4 9 6 6 6 5 3 4 4
5 12 7 10 12 14 12 21 16 15 15 19 10 7 9 9 10 9 9 10 10 6 11 10 12 11 9 7 5 5 4 3 4 5 9 13 16 15 9 4 5 10 4 2 3 2 4 3 4
11 9 12 13 16 12 15 15 19 9 9 15 11 9 10 10 8 9 11 9 9 10 10 9 8 8 6 5 5 3 3 3 3 3 4 3 6 10 8 5 5 7 4 3 2 3 4 3 5
16 16 12 10 12 9 15 11 10 9 7 8 8 10 9 15 10 10 10 9 8 7 9 9 10 6 5 3 4 2 0 2 1 2 4 4 4 5 4 4 4 4 4 4 3 3 5 4 4
20 19 22 20 18 13 8 8 9 8 7 9 9 10 17 16 13 12 9 10 9 6 7 7 6 7 5 3 2 3 3 2 1 2 4 6 7 7 5 5 4 4 3 4 4 4 3 4 5
21 21 20 19 15 16 6 8 6 8 7 8 9 11 18 22 19 15 12 10 9 8 7 9 8 6 4 7 4 3 4 3 1 1 1 3 6 7 6 5 3 3 3 4 4 4 5 5 3
24 20 21 20 11 12 7 15 9 8 10 9 10 10 18 19 17 16 13 10 10 7 7 8 8 8 9 8 5 4 2 3 1 2 2 3 8 6 7 7 5 6 4 4 4 3 4 4 7
22 19 19 19 14 11 17 8 7 12 14 16 20 13 20 21 22 19 16 14 10 8 7 6 8 8 7 7 7 5 5 3 2 2 4 2 2 6 8 7 5 5 3 4 5 4 5 6 7
21 20 20 14 7 17 14 10 17 13 10 8 17 16 23 21 19 19 16 15 10 8 6 6 8 5 6 6 6 7 6 5 5 5 4 4 3 4 2 2 3 4 4 5 4 5 5 6 7
22 18 6 3 8 15 13 14 18 5 18 16 7 14 22 21 20 19 19 15 11 9 7 4 6 4 5 5 4 4 4 3 1 2 0 2 2 2 4 5 4 3 2 3 4 3 4 4 4
20 17 10 8 7 11 16 14 8 8 10 12 11 21 21 19 18 20 18 14 12 10 9 7 7 5 6 5 5 4 4 2 0 1 1 1 0 1 3 5 6 6 6 6 6 3 4 5 5
17 19 10 6 6 2 5 3 4 3 6 9 12 21 18 19 18 17 15 14 10 9 9 8 5 3 4 5 3 2 2 2 2 2 3 3 2 3 6 7 7 7 6 6 6 3 4 4 5
21 7 13 2 7 17 5 5 7 4 7 9 17 19 17 16 16 13 12 10 7 9 8 8 7 5 3 4 3 2 1 2 2 1 3 4 2 4 6 6 6 5 6 6 6 5 6 6 5
17 11 5 5 8 6 3 5 11 16 10 16 19 20 20 18 14 14 10 9 9 8 8 7 7 6 4 2 2 2 3 3 3 3 4 2 5 4 4 5 5 5 4 5 4 4 5 7 8
19 20 17 11 11 9 2 6 2 5 9 14 16 15 14 14 12 11 10 9 8 8 7 7 6 6 4 3 2 1 2 4 4 1 6 6 5 4 5 6 6 5 5 5 4 5 6 7 8
Wind_Direction
279 272 249 348 34 88 261 255 254 166 67 89 69 74 107 113 47 128 85 105 122 130 131 124 123 126 133 131 131 133 132 129 126 122 119 116 114 113 112 110 107 107 105 102 97 91 84 76 69
336 315 11 282 126 299 282 259 209 79 75 75 63 87 45 84 332 90 109 124 131 132 128 127 127 128 129 131 134 136 135 132 130 128 128 125 123 121 119 119 117 115 115 117 111 106 95 87 79
311 190 80 165 204 226 219 314 73 45 48 54 81 47 98 185 227 252 124 130 128 132 123 121 122 126 130 137 136 134 134 133 134 134 132 131 130 131 128 125 125 123 126 121 117 111 109 106 93
330 345 322 206 259 263 240 240 70 56 24 25 56 73 84 301 299 184 125 124 124 139 122 133 135 133 136 136 134 134 137 138 139 138 137 137 137 136 133 133 136 134 137 131 121 111 104 96 92
336 293 256 264 264 265 226 128 82 75 88 118 93 146 144 220 225 155 129 127 140 131 134 138 141 139 139 135 135 138 140 144 146 145 146 145 146 144 143 142 143 141 142 130 122 109 95 65 9
314 120 322 274 273 285 215 152 121 123 193 125 107 144 56 315 211 170 137 125 126 133 134 140 143 144 143 143 141 144 145 149 152 152 151 149 150 150 151 150 150 147 145 141 131 128 116 37 5
211 48 258 277 284 298 218 156 155 162 221 214 135 95 116 331 303 28 112 117 125 120 128 140 148 152 151 146 144 148 149 155 158 157 156 155 158 157 156 160 159 160 158 155 150 155 164 199 280
207 126 288 278 288 283 196 142 166 126 289 133 116 128 152 198 250 172 112 119 113 122 137 145 147 143 148 151 155 157 158 162 162 159 160 162 162 163 164 167 166 169 170 169 170 177 207 242 265
257 287 267 271 270 281 173 149 200 143 74 5 98 150 180 193 153 167 128 130 126 142 144 143 147 148 150 147 157 159 161 163 162 162 164 163 162 169 169 174 178 177 179 186 194 199 218 247 265
192 206 237 263 285 305 321 356 106 91 297 292 94 99 164 160 150 175 164 156 157 147 155 155 158 159 153 152 140 145 152 154 157 159 166 173 176 179 180 184 178 177 182 193 203 213 227 243 258
249 236 249 263 266 289 319 327 283 109 244 228 166 172 168 159 185 173 175 177 164 161 160 165 160 160 161 147 150 152 156 161 170 172 178 189 198 195 189 174 171 175 189 190 199 213 226 231 239
252 259 250 258 270 296 302 302 331 291 230 267 6 162 165 173 175 181 179 179 171 168 168 168 162 163 170 143 159 163 164 172 179 185 186 195 210 187 169 177 179 185 188 192 198 206 221 233 237
253 252 254 262 264 274 291 294 274 297 293 291 356 147 158 167 179 190 185 185 169 168 170 171 162 163 169 151 168 172 177 181 187 188 192 191 197 189 169 179 181 193 192 197 198 204 212 231 228
293 299 292 298 291 302 283 266 261 281 287 286 277 232 173 179 179 211 228 167 172 170 170 164 164 163 168 159 179 182 179 193 187 193 194 195 192 184 178 183 195 196 194 205 198 203 201 209 215
267 309 306 281 277 277 293 288 239 233 253 255 261 217 205 129 86 85 53 49 173 173 162 164 157 166 172 167 169 175 197 184 190 193 192 190 191 184 186 191 212 222 219 209 196 204 192 178 208
304 281 271 272 259 267 228 261 259 232 228 239 223 199 181 102 99 75 33 40 67 130 164 156 162 161 158 135 121 97 63 129 171 172 178 184 187 192 188 198 229 249 252 201 184 172 172 182 200
251 261 263 285 236 241 226 243 246 242 243 228 185 175 132 106 80 70 46 48 66 76 131 121 137 138 135 118 117 121 108 96 74 182 182 183 189 193 186 191 217 238 238 232 190 178 159 175 208
240 233 246 244 257 248 259 245 234 248 278 218 169 166 145 122 112 86 61 53 66 65 91 115 112 108 113 115 100 75 118 109 108 96 90 160 191 192 186 199 211 223 239 225 206 190 197 173 202
239 267 264 268 266 246 259 220 212 236 225 171 170 166 146 131 120 94 84 61 49 67 96 95 115 129 127 131 116 90 114 127 157 168 134 131 188 232 210 199 211 209 219 228 208 198 211 229 189
241 253 269 280 284 286 286 230 204 221 208 193 187 191 142 136 129 119 101 92 68 42 74 103 129 131 150 139 111 128 156 203 183 182 190 199 198 210 210 213 202 223 206 217 217 221 225 217 192
234 234 246 249 271 281 294 259 250 252 192 201 222 206 161 152 141 131 120 111 93 69 76 93 96 92 93 148 122 79 72 57 58 243 204 217 212 217 217 222 224 238 243 243 239 218 208 256 279
240 236 244 250 246 257 240 270 256 224 217 237 221 207 163 149 136 134 133 122 114 101 82 82 77 64 55 75 80 94 106 125 26 316 188 230 205 204 207 218 219 209 197 207 225 221 227 209 232
241 237 249 243 251 247 244 270 235 221 219 228 243 240 159 153 146 145 143 133 124 109 93 87 88 73 69 78 94 106 102 126 153 76 57 11 305 215 206 212 218 219 219 221 213 221 221 229 231
228 233 241 256 264 254 228 236 243 228 232 232 241 214 157 155 146 142 137 126 123 116 98 88 111 108 97 90 83 81 70 46 30 3 357 346 356 358 344 246 204 214 215 217 218 224 245 246 236
237 216 222 278 222 243 198 232 238 228 227 246 234 157 153 151 146 141 135 134 134 132 138 132 114 115 117 105 97 95 92 77 34 300 289 45 14 26 7 24 9 11 357 319 302 276 236 236 263
213 212 205 199 220 248 222 238 226 221 246 230 210 158 150 146 143 143 143 142 141 146 147 138 129 141 140 130 133 116 100 102 334 344 348 326 326 303 50 65 46 24 12 10 7 348 312 292 277
224 230 197 208 260 270 224 302 340 189 268 191 172 147 145 144 143 138 129 134 139 138 144 135 126 116 133 154 148 183 212 205 261 344 11 339 320 63 68 58 40 29 22 12 360 344 323 323 309
220 198 196 110 217 245 227 217 229 226 192 122 137 143 140 136 126 121 125 124 128 134 136 140 156 174 186 135 136 152 208 205 238 304 317 307 331 96 81 67 60 25 11 7 9 349 346 331 310
215 209 186 143 183 207 230 244 196 230 187 159 153 147 147 145 133 132 132 129 129 133 142 161 167 154 145 166 215 235 257 256 242 211 231 43 92 86 78 85 52 23 355 346 350 345 329 325 317
214 215 195 195 198 228 172 235 101 56 185 150 142 138 133 131 128 133 136 138 137 148 151 163 161 157 173 176 105 17 271 252 238 188 101 92 73 52 48 47 39 30 22 8 1 346 334 322 318